AirNav   Everest Fuels
 
 1442 users online  

55AR Silver Wings Field Airport
Eureka Springs, Arkansas, USA

GOING TO EUREKA SPRINGS?


FAA INFORMATION EFFECTIVE 05 NOVEMBER 2020

Location

FAA Identifier: 55AR
Lat/Long: 36-25-47.0000N 093-41-44.0000W
36-25.783333N 093-41.733333W
36.4297222,-93.6955556
(estimated)
Elevation: 1571 ft. / 479 m (estimated)
Variation: 03E (2000)
From city: 3 miles NE of EUREKA SPRINGS, AR
Time zone: UTC -6 (UTC -5 during Daylight Saving Time)
Zip code: 72632

Airport Operations

Airport use: Private use. Permission required prior to landing
Activation date: 09/2002
Control tower: no
ARTCC: MEMPHIS CENTER
FSS: JONESBORO FLIGHT SERVICE STATION
Attendance: UNATNDD
Wind indicator: yes
Segmented circle: no

Nearby radio navigation aids

VOR radial/distance  VOR name  Freq  Var
RZCr058/23.3RAZORBACK VORTAC116.4004E
HROr282/24.2HARRISON VOR/DME112.5004E

Airport Services

Runway Information

Runway 16/34

Dimensions: 1900 x 65 ft. / 579 x 20 m
Surface: turf, in good condition
RUNWAY 16  RUNWAY 34
Traffic pattern: rightleft

Airport Ownership and Management from official FAA records

Ownership: Privately-owned
Owner: AVIATION CADET MUSEUM INC
542 CR 2073
EUREKA SPRINGS, AR 72632
Phone (479) 253-2008
OR 479-253-5008.
Manager: ERROL D. SEVERE
542 CR 2073
EUREKA SPRINGS, AR 72632
Phone 479-253-5008

Airport Operational Statistics

Aircraft based on the field: 1
Single engine airplanes: 1
    
Aircraft operations: 48/year *
100% transient general aviation
* for 12-month period ending 31 August 2007

Additional Remarks

RADIO CONTROLLED MODEL ACFT INVOF RY ON THE SE END.
NO LNDGS RY 34. ALL TKOFS WILL BE TO THE N AND ALL LNDGS WILL BE FM THE N.
ALL PILOTS MUST CONTACT AMGR AT 479-253-5008 TO OBTAIN PMSN TO LND.
FOR CD CTC RAZORBACK APCH 479-649-2416, WHEN APCH CLSD CTC MEMPHIS ARTCC AT 901-368-8453.

Instrument Procedures

There are no published instrument procedures at 55AR.

Some nearby airports with instrument procedures:

4M1 - Carroll County Airport (4 nm SE)
94K - Cassville Municipal Airport (19 nm NW)
KROG - Rogers Executive Airport - Carter Field (20 nm W)
H34 - Huntsville Municipal Airport (21 nm S)
KFWB - Branson West Municipal Airport - Emerson Field (21 nm NE)
 
Loc | Ops | Rwys | IFR | FBO | Links
Com | Nav | Svcs | Stats | Notes
Aerial photo
WARNING: Photo may not be current or correct
Aerial photo of 55AR (Silver Wings Field Airport)
Photo taken 08-May-2015
looking southwest.

Do you have a better or more recent aerial photo of Silver Wings Field Airport that you would like to share? If so, please send us your photo.

 
Sectional chart

 
Airport distance calculator
Flying to Silver Wings Field Airport? Find the distance to fly.

From to 55AR

Sunrise and sunset
Times for 02-Dec-2020
 Local
(UTC-6)
 Zulu
(UTC)
Morning civil twilight06:4212:42
Sunrise07:1113:11
Sunset16:5822:58
Evening civil twilight17:2723:27

Current date and time
Zulu (UTC)  02-Dec-2020 17:39:34
Local (UTC-6)  02-Dec-2020 11:39:34
 
METAR
KROG 
19nm W 
021658Z 09006KT 10SM -RA OVC035 06/M03 A3026 RMK AO2 RAE1559B25E36B58 SLP251 T00611028 PNO $
KFWB 
21nm NE 
021715Z AUTO VRB05G12KT 10SM CLR 09/M02 A3027 RMK AO2
KBBG 
25nm E 
021645Z 12007KT 10SM CLR 06/M02 A3029
KVBT 
26nm W 
021656Z AUTO 07005KT 10SM -RA OVC037 05/01 A3027 RMK AO2 SLP261 T00500011 TSNO PNO $
KASG 
26nm SW 
021718Z 09004KT 2 1/2SM BR SCT026 OVC037 07/03 A3026
KHRO 
28nm E 
021653Z AUTO 12007KT 10SM FEW039 SCT046 07/M03 A3028 RMK AO2 SLP260 T00671028
KXNA 
30nm W 
021653Z 05004KT 10SM -RA OVC035 05/02 A3025 RMK AO2 SLP250 P0000 T00500017
KHFJ 
32nm NW 
021715Z AUTO 10005KT 10SM OVC065 07/M01 A3025 RMK AO2
KFYV 
34nm SW 
021653Z 00000KT 10SM BKN037 OVC046 06/03 A3025 RMK AO2 RAB19E43 SLP245 P0000 T00610028
TAF
KROG 
19nm W 
021122Z 0212/0312 10009KT P6SM SCT120 FM021600 12008KT P6SM VCSH OVC040 FM022100 12008KT 5SM -RA BR OVC015 FM030300 10008KT 3SM -RA BR OVC007 PROB30 0308/0312 3SM -RASN BR OVC004
NOTAMs
Click for the latest NOTAMs
NOTAMs are issued by the DoD/FAA and will open in a separate window not controlled by AirNav.

 

 
 

Things to do: Attractions on or near the airport

  
 Business Name 
 
 Contact 
 
 Services / Description 
 
Distance
 
Comments
  
Aviation Cadet World 479-253-5008
no information available

If you are affiliated with Aviation Cadet World and would like to show here your services, contact info, web link, logo, and more, click here
on airport  
   write
 

Would you like to see your business listed on this page?

 If your business provides an interesting product or service to pilots, flight crews, aircraft, or users of the Silver Wings Field Airport, you should consider listing it here.  To start the listing process, click on the button below
 
Add a business
 

Other Pages about Silver Wings Field Airport

Update a link
 
Copyright © AirNav, LLC. All rights reserved. Privacy Policy  Contact